GEFSSE_prec_meanprecacc_270.txt.gz
Total_Precipitation_Accumulation
0.58 0.42 0.43 0.39 0.33 0.29 0.27 0.34 0.41 0.37 0.33 0.34 0.38 0.39 0.35 0.31 0.30 0.31 0.34 0.35 0.38 0.44 0.52 0.60 0.64 0.70 0.75 0.76 0.65 0.50 0.43 0.39 0.36 0.40 0.48 0.53 0.61 0.68 0.80 0.80 0.87 0.78 0.93
0.43 0.38 0.40 0.37 0.37 0.35 0.34 0.39 0.36 0.31 0.31 0.31 0.32 0.38 0.36 0.33 0.32 0.35 0.38 0.44 0.49 0.56 0.56 0.57 0.61 0.69 0.67 0.61 0.56 0.49 0.40 0.35 0.38 0.51 0.62 0.65 0.82 0.91 0.99 0.93 0.95 1.06 0.95
0.33 0.37 0.40 0.42 0.41 0.39 0.35 0.36 0.31 0.29 0.34 0.37 0.35 0.40 0.43 0.37 0.35 0.36 0.41 0.51 0.62 0.67 0.63 0.61 0.61 0.65 0.66 0.57 0.50 0.48 0.49 0.47 0.53 0.68 0.96 1.00 1.01 1.18 1.23 1.12 1.06 0.96 0.82
0.30 0.38 0.39 0.47 0.48 0.42 0.36 0.36 0.34 0.34 0.36 0.43 0.47 0.49 0.53 0.45 0.41 0.44 0.48 0.54 0.67 0.72 0.70 0.68 0.67 0.69 0.68 0.59 0.53 0.53 0.61 0.67 0.76 0.93 1.23 1.20 1.05 1.31 1.32 1.20 1.12 1.03 0.95
0.36 0.38 0.41 0.43 0.47 0.50 0.49 0.46 0.46 0.44 0.46 0.51 0.58 0.63 0.68 0.62 0.55 0.55 0.56 0.58 0.68 0.74 0.79 0.80 0.79 0.80 0.76 0.70 0.64 0.64 0.67 0.78 0.97 1.18 1.50 1.69 1.67 1.68 1.41 1.26 1.16 1.13 1.12
0.49 0.50 0.43 0.47 0.50 0.64 0.64 0.59 0.58 0.56 0.57 0.63 0.67 0.68 0.73 0.69 0.66 0.70 0.74 0.75 0.81 0.83 0.87 0.92 0.97 1.01 0.91 0.98 0.85 0.80 0.82 0.95 1.05 1.28 1.64 1.97 1.95 1.92 1.60 1.39 1.27 1.29 1.24
0.77 0.75 0.58 0.55 0.57 0.69 0.66 0.64 0.63 0.63 0.64 0.72 0.75 0.72 0.74 0.71 0.69 0.79 0.93 0.93 1.00 1.04 0.96 0.94 1.01 1.07 1.06 1.21 1.20 1.02 1.08 1.21 1.19 1.41 1.73 1.81 1.93 1.95 1.81 1.67 1.49 1.32 1.22
0.92 0.87 0.66 0.61 0.60 0.75 0.78 0.72 0.70 0.69 0.73 0.84 0.87 0.80 0.75 0.74 0.76 0.85 0.97 1.06 1.14 1.13 1.00 0.98 0.99 1.04 1.28 1.42 1.44 1.33 1.26 1.28 1.13 1.28 1.63 1.77 1.66 1.75 1.97 1.92 1.73 1.48 1.28
0.94 0.98 0.83 0.82 0.78 0.80 0.85 0.85 0.89 0.82 0.87 0.95 0.94 0.97 0.89 0.85 0.96 1.04 1.04 1.10 1.16 1.18 1.07 1.00 1.04 0.97 1.09 1.33 1.42 1.38 1.33 1.34 1.16 1.32 1.51 1.93 1.67 1.82 2.08 1.91 1.77 1.59 1.39
1.62 1.63 1.40 1.28 1.15 0.99 0.95 0.90 0.89 0.90 1.01 1.14 1.08 1.04 1.03 1.02 1.06 1.17 1.14 1.15 1.10 1.04 1.03 1.01 1.10 1.09 1.01 1.03 1.05 1.10 1.15 1.14 0.98 1.14 1.62 1.79 1.80 2.15 2.30 2.08 1.89 1.74 1.57
2.35 2.40 2.01 1.59 1.37 1.36 1.26 1.04 1.07 1.02 1.04 1.14 1.16 1.13 1.18 1.42 1.56 1.58 1.37 1.44 1.31 1.16 1.13 1.15 1.13 1.08 1.00 0.98 1.03 1.14 1.10 0.86 1.01 1.26 1.54 1.80 1.99 2.35 2.52 2.26 2.05 1.93 1.77
2.66 2.64 2.33 1.82 1.91 2.05 1.68 1.50 1.43 1.28 1.24 1.22 1.37 1.40 1.51 1.95 2.06 1.77 1.78 1.73 1.69 1.53 1.43 1.41 1.37 1.23 1.10 1.05 1.17 1.22 0.96 0.86 1.16 1.39 1.61 2.00 2.28 2.49 2.48 2.25 2.14 2.10 2.00
2.77 2.45 2.10 2.01 2.05 2.22 2.12 1.96 1.86 1.83 1.86 1.85 1.89 1.94 2.15 2.22 2.10 1.95 2.13 1.97 1.94 1.85 1.81 1.86 1.68 1.44 1.37 1.38 1.37 1.27 1.11 1.14 1.33 1.41 1.65 2.06 2.33 2.56 2.65 2.40 2.20 2.26 2.22
2.65 2.50 2.42 2.42 2.29 2.43 2.70 2.60 2.44 2.40 2.32 2.20 2.23 2.16 2.48 2.64 2.54 2.53 2.57 2.40 2.48 2.49 2.49 2.23 2.04 1.81 1.68 1.52 1.39 1.35 1.37 1.40 1.52 1.68 1.97 2.09 2.18 2.36 2.53 2.53 2.46 2.49 2.40
2.82 2.67 2.64 2.67 2.66 2.78 3.12 3.21 2.94 2.85 2.66 2.48 2.44 2.48 2.63 2.71 2.74 2.87 2.84 2.95 2.84 2.71 2.56 2.38 2.10 2.10 1.94 1.75 1.60 1.48 1.58 1.71 1.79 1.99 2.06 2.15 2.09 2.15 2.44 2.67 2.75 2.83 2.70
3.10 2.87 2.76 2.81 2.72 2.77 2.97 3.15 3.14 3.02 3.08 2.97 2.77 2.72 2.77 2.87 2.98 3.01 3.04 3.00 2.83 2.64 2.65 2.59 2.42 2.39 2.27 2.10 1.87 1.85 1.85 1.85 1.96 2.02 2.11 2.30 2.06 1.95 2.23 2.60 2.85 2.97 3.08
3.37 3.33 3.21 3.17 3.23 3.10 3.08 3.14 3.09 3.10 3.33 3.27 3.23 3.20 3.03 2.94 3.02 3.07 3.15 3.08 2.95 2.85 2.83 2.76 2.71 2.63 2.49 2.36 2.24 2.20 2.17 2.07 2.00 2.03 2.20 2.35 2.30 2.24 2.32 2.43 2.61 2.83 3.07
3.88 3.81 3.42 3.10 3.35 3.38 3.38 3.38 3.41 3.42 3.58 3.52 3.35 3.43 3.29 3.29 3.22 3.19 3.07 2.91 2.85 2.82 2.97 3.04 2.95 2.96 2.80 2.67 2.61 2.39 2.33 2.32 2.14 2.14 2.18 2.21 2.47 2.54 2.55 2.43 2.42 2.61 2.85
4.47 4.24 3.65 3.32 3.42 3.56 3.51 3.66 3.88 3.99 3.96 3.80 3.65 3.70 3.56 3.61 3.53 3.42 3.46 3.37 3.21 3.23 3.22 2.97 3.06 3.16 3.17 3.07 2.71 2.55 2.40 2.39 2.31 2.19 2.20 2.12 2.30 2.53 2.54 2.50 2.48 2.49 2.70
4.59 4.48 4.00 3.72 3.90 3.88 3.75 3.86 4.01 4.09 4.08 4.16 4.20 4.15 4.00 3.91 3.99 4.10 4.10 3.98 3.74 3.61 3.54 3.56 3.52 3.25 3.10 3.05 2.72 2.64 2.51 2.31 2.25 2.20 2.12 2.10 2.13 2.06 2.19 2.23 2.36 2.33 2.42
3.82 3.90 4.05 4.04 4.08 4.09 4.04 4.05 4.25 4.40 4.41 4.39 4.52 4.57 4.40 4.33 4.47 4.78 4.81 4.62 4.31 3.99 3.76 3.69 3.64 3.42 3.15 2.99 2.98 2.81 2.51 2.25 2.21 2.14 2.12 2.10 1.94 1.87 1.99 2.17 2.14 2.06 2.08
3.59 3.77 3.96 3.96 4.14 4.38 4.74 5.22 5.50 5.63 5.50 5.30 5.18 5.10 4.99 4.90 4.98 5.08 5.12 4.76 4.40 4.20 3.91 3.65 3.56 3.39 3.13 3.08 3.07 3.09 2.73 2.50 2.16 1.89 1.98 1.98 1.92 1.92 1.86 1.83 1.92 1.93 1.87
3.18 3.52 3.78 4.08 4.49 4.99 5.62 6.39 6.70 6.45 6.04 5.81 5.46 5.39 5.18 4.96 4.92 4.99 4.71 4.48 4.25 4.04 3.84 3.62 3.55 3.48 3.19 3.08 3.15 3.31 3.01 2.67 2.36 2.11 1.91 1.84 1.90 1.94 1.87 1.81 1.82 1.88 1.86
2.81 3.29 3.73 4.28 4.90 5.52 6.09 6.55 6.75 6.63 6.36 6.07 5.61 5.20 4.81 4.48 4.28 4.17 4.05 3.83 3.73 3.58 3.41 3.24 3.24 3.23 3.12 2.88 2.81 2.72 2.66 2.50 2.44 2.23 2.00 1.84 1.83 1.89 1.87 1.79 1.78 1.83 1.87
2.75 3.23 3.71 4.20 4.91 5.40 5.92 6.31 6.50 6.52 6.43 6.03 5.34 4.68 4.26 3.93 3.67 3.37 3.15 3.04 3.03 2.98 2.77 2.58 2.57 2.57 2.56 2.49 2.43 2.31 2.28 2.26 2.22 2.12 2.02 1.94 1.90 1.79 1.72 1.72 1.71 1.71 1.76
2.68 3.17 3.52 3.86 4.56 5.23 5.73 6.10 6.36 6.34 6.11 5.50 4.79 4.23 3.86 3.55 3.29 3.02 2.83 2.65 2.58 2.48 2.30 2.15 2.10 2.10 2.13 2.14 2.17 2.15 2.02 1.98 1.97 2.02 1.91 1.82 1.81 1.74 1.68 1.63 1.60 1.61 1.67

GEFSSE_prec_meanprecacc_276.txt.gz
Total_Precipitation_Accumulation
0.58 0.42 0.43 0.40 0.34 0.30 0.29 0.35 0.42 0.38 0.35 0.37 0.40 0.41 0.37 0.35 0.33 0.33 0.36 0.40 0.45 0.51 0.58 0.66 0.69 0.74 0.80 0.83 0.71 0.55 0.47 0.44 0.42 0.48 0.56 0.60 0.68 0.76 0.88 0.86 0.93 0.84 0.98
0.43 0.38 0.41 0.38 0.38 0.35 0.35 0.40 0.37 0.33 0.32 0.33 0.34 0.40 0.40 0.36 0.35 0.38 0.40 0.47 0.55 0.65 0.66 0.66 0.69 0.75 0.74 0.68 0.63 0.56 0.45 0.41 0.44 0.59 0.70 0.71 0.88 0.98 1.06 0.99 1.02 1.14 1.00
0.33 0.37 0.40 0.43 0.42 0.39 0.35 0.37 0.32 0.30 0.35 0.39 0.37 0.42 0.47 0.40 0.39 0.38 0.44 0.55 0.68 0.74 0.72 0.73 0.73 0.76 0.76 0.64 0.58 0.57 0.56 0.54 0.60 0.77 1.06 1.07 1.08 1.27 1.29 1.17 1.11 1.02 0.86
0.30 0.38 0.39 0.48 0.49 0.43 0.37 0.37 0.35 0.35 0.38 0.44 0.49 0.51 0.56 0.49 0.46 0.48 0.53 0.59 0.73 0.79 0.78 0.79 0.78 0.80 0.79 0.67 0.61 0.62 0.69 0.77 0.85 1.04 1.35 1.29 1.15 1.43 1.39 1.26 1.16 1.08 1.00
0.36 0.38 0.41 0.44 0.47 0.51 0.50 0.48 0.47 0.45 0.48 0.52 0.60 0.65 0.71 0.65 0.58 0.60 0.63 0.66 0.75 0.79 0.85 0.91 0.91 0.91 0.87 0.81 0.74 0.73 0.76 0.87 1.08 1.31 1.61 1.78 1.78 1.79 1.48 1.32 1.21 1.18 1.17
0.50 0.51 0.44 0.50 0.52 0.65 0.66 0.61 0.59 0.57 0.58 0.64 0.69 0.71 0.76 0.72 0.70 0.75 0.79 0.82 0.89 0.91 0.94 1.00 1.07 1.11 1.05 1.14 0.97 0.90 0.92 1.05 1.16 1.41 1.79 2.09 2.05 2.05 1.68 1.46 1.33 1.34 1.29
0.79 0.76 0.60 0.60 0.60 0.71 0.68 0.67 0.66 0.65 0.66 0.74 0.77 0.74 0.77 0.74 0.72 0.84 0.98 1.02 1.08 1.11 1.02 0.99 1.07 1.13 1.14 1.32 1.33 1.15 1.23 1.34 1.30 1.54 1.85 1.95 2.04 2.07 1.92 1.75 1.57 1.38 1.27
0.95 0.90 0.68 0.64 0.66 0.79 0.81 0.74 0.73 0.72 0.76 0.87 0.89 0.83 0.78 0.77 0.81 0.91 1.05 1.13 1.21 1.18 1.05 1.02 1.03 1.08 1.33 1.48 1.53 1.46 1.40 1.44 1.23 1.38 1.71 1.88 1.76 1.85 2.08 2.00 1.80 1.54 1.32
0.99 1.03 0.86 0.85 0.82 0.84 0.89 0.89 0.93 0.86 0.90 0.99 0.98 1.01 0.93 0.89 1.01 1.10 1.13 1.17 1.20 1.21 1.10 1.03 1.08 1.03 1.15 1.39 1.46 1.45 1.42 1.48 1.33 1.43 1.60 2.02 1.79 1.94 2.18 2.00 1.84 1.65 1.43
1.67 1.69 1.44 1.32 1.19 1.04 1.00 0.94 0.93 0.93 1.04 1.17 1.12 1.09 1.11 1.10 1.14 1.25 1.20 1.21 1.15 1.09 1.07 1.04 1.14 1.16 1.09 1.09 1.11 1.19 1.24 1.21 1.09 1.25 1.72 1.90 1.92 2.33 2.44 2.17 1.97 1.81 1.62
2.40 2.46 2.07 1.64 1.44 1.44 1.32 1.09 1.11 1.06 1.08 1.17 1.20 1.17 1.26 1.52 1.69 1.71 1.46 1.52 1.38 1.24 1.19 1.19 1.17 1.12 1.05 1.02 1.07 1.19 1.16 0.91 1.04 1.30 1.61 1.90 2.08 2.45 2.63 2.35 2.13 2.01 1.84
2.70 2.70 2.39 1.88 1.97 2.13 1.75 1.58 1.49 1.34 1.30 1.27 1.42 1.45 1.59 2.06 2.19 1.90 1.91 1.83 1.77 1.61 1.49 1.47 1.42 1.28 1.15 1.10 1.22 1.25 0.99 0.88 1.18 1.41 1.64 2.06 2.35 2.57 2.56 2.34 2.24 2.19 2.09
2.81 2.51 2.16 2.07 2.11 2.31 2.22 2.04 1.94 1.91 1.95 1.94 1.99 2.04 2.24 2.33 2.19 2.05 2.31 2.16 2.09 1.97 1.91 1.94 1.76 1.50 1.44 1.46 1.45 1.33 1.14 1.17 1.36 1.45 1.70 2.10 2.37 2.62 2.72 2.48 2.29 2.34 2.32
2.70 2.55 2.48 2.48 2.35 2.51 2.79 2.68 2.53 2.48 2.40 2.29 2.32 2.25 2.58 2.74 2.64 2.64 2.73 2.64 2.72 2.71 2.68 2.36 2.14 1.90 1.77 1.59 1.46 1.41 1.42 1.44 1.57 1.74 2.04 2.17 2.25 2.41 2.60 2.62 2.55 2.56 2.48
2.89 2.74 2.70 2.77 2.73 2.85 3.20 3.29 3.01 2.92 2.74 2.55 2.52 2.58 2.75 2.82 2.84 2.98 2.96 3.10 3.02 2.91 2.78 2.55 2.20 2.18 2.01 1.82 1.66 1.55 1.64 1.77 1.84 2.05 2.12 2.21 2.14 2.20 2.50 2.76 2.83 2.91 2.78
3.15 2.92 2.83 2.90 2.82 2.85 3.05 3.23 3.21 3.10 3.17 3.06 2.85 2.81 2.86 2.96 3.08 3.11 3.15 3.12 2.95 2.77 2.79 2.73 2.52 2.46 2.32 2.15 1.92 1.90 1.92 1.91 2.02 2.08 2.17 2.37 2.10 1.99 2.29 2.68 2.93 3.06 3.17
3.39 3.35 3.25 3.26 3.33 3.17 3.14 3.21 3.15 3.18 3.41 3.37 3.32 3.27 3.09 3.02 3.10 3.17 3.25 3.18 3.04 2.94 2.93 2.85 2.80 2.71 2.55 2.41 2.29 2.25 2.24 2.14 2.08 2.12 2.28 2.42 2.36 2.29 2.37 2.49 2.69 2.92 3.15
3.91 3.84 3.45 3.15 3.41 3.43 3.44 3.44 3.47 3.47 3.64 3.59 3.41 3.48 3.32 3.32 3.26 3.25 3.14 2.99 2.94 2.91 3.05 3.11 3.02 3.02 2.87 2.73 2.68 2.43 2.37 2.38 2.22 2.25 2.30 2.30 2.54 2.60 2.61 2.49 2.49 2.69 2.93
4.51 4.27 3.68 3.35 3.46 3.61 3.56 3.70 3.91 4.03 4.00 3.84 3.69 3.74 3.59 3.63 3.55 3.45 3.50 3.43 3.28 3.31 3.28 3.03 3.12 3.21 3.23 3.14 2.77 2.60 2.45 2.45 2.39 2.25 2.27 2.20 2.36 2.58 2.60 2.56 2.56 2.57 2.80
4.62 4.52 4.03 3.75 3.95 3.95 3.81 3.90 4.05 4.13 4.12 4.20 4.23 4.18 4.02 3.94 4.02 4.14 4.14 4.03 3.82 3.68 3.60 3.64 3.61 3.34 3.19 3.15 2.80 2.71 2.58 2.38 2.32 2.26 2.17 2.15 2.19 2.12 2.23 2.28 2.43 2.41 2.53
3.85 3.93 4.08 4.07 4.13 4.14 4.10 4.12 4.31 4.46 4.46 4.43 4.56 4.59 4.42 4.35 4.49 4.82 4.85 4.69 4.38 4.07 3.84 3.76 3.73 3.52 3.24 3.09 3.08 2.91 2.59 2.32 2.28 2.19 2.17 2.16 2.00 1.95 2.08 2.23 2.21 2.12 2.17
3.60 3.79 3.99 3.99 4.18 4.44 4.80 5.30 5.58 5.68 5.55 5.35 5.23 5.14 5.02 4.93 5.01 5.12 5.17 4.82 4.46 4.27 3.99 3.72 3.63 3.47 3.21 3.16 3.14 3.16 2.81 2.59 2.23 1.94 2.02 2.03 1.97 1.98 1.94 1.91 1.98 1.99 1.97
3.20 3.54 3.80 4.12 4.54 5.04 5.68 6.45 6.76 6.51 6.09 5.87 5.51 5.43 5.21 5.00 4.97 5.05 4.77 4.53 4.32 4.11 3.92 3.70 3.62 3.55 3.26 3.14 3.22 3.40 3.09 2.76 2.44 2.17 1.95 1.89 1.96 2.00 1.93 1.88 1.87 1.94 1.94
2.82 3.29 3.75 4.31 4.93 5.57 6.15 6.60 6.80 6.68 6.41 6.11 5.66 5.25 4.85 4.54 4.34 4.23 4.11 3.89 3.78 3.65 3.49 3.32 3.30 3.30 3.20 2.95 2.90 2.80 2.73 2.58 2.54 2.32 2.07 1.89 1.89 1.94 1.92 1.84 1.83 1.89 1.93
2.76 3.23 3.72 4.22 4.94 5.44 5.97 6.35 6.55 6.57 6.47 6.07 5.39 4.73 4.31 3.97 3.71 3.43 3.21 3.10 3.10 3.04 2.84 2.65 2.64 2.65 2.65 2.58 2.53 2.39 2.36 2.36 2.33 2.23 2.11 2.02 1.97 1.85 1.77 1.77 1.76 1.77 1.82
2.70 3.18 3.52 3.88 4.59 5.27 5.77 6.13 6.40 6.37 6.14 5.53 4.82 4.26 3.90 3.60 3.33 3.07 2.88 2.70 2.63 2.54 2.36 2.20 2.15 2.16 2.21 2.23 2.26 2.24 2.13 2.10 2.08 2.12 2.01 1.91 1.89 1.80 1.72 1.67 1.64 1.66 1.73

GEFSSE_prec_meanprecacc_282.txt.gz
Total_Precipitation_Accumulation
0.60 0.42 0.43 0.40 0.34 0.30 0.29 0.35 0.43 0.38 0.35 0.37 0.41 0.42 0.39 0.36 0.35 0.35 0.41 0.45 0.52 0.58 0.64 0.72 0.80 0.87 0.91 0.92 0.78 0.62 0.55 0.53 0.50 0.58 0.65 0.69 0.78 0.88 1.00 0.97 1.03 0.92 1.06
0.45 0.38 0.41 0.38 0.38 0.35 0.35 0.40 0.37 0.33 0.32 0.34 0.35 0.41 0.41 0.38 0.37 0.41 0.44 0.53 0.63 0.71 0.73 0.73 0.77 0.88 0.88 0.79 0.72 0.65 0.53 0.50 0.52 0.67 0.78 0.79 0.98 1.10 1.18 1.09 1.07 1.18 1.07
0.35 0.38 0.40 0.44 0.43 0.40 0.35 0.37 0.32 0.30 0.35 0.39 0.38 0.43 0.48 0.42 0.41 0.41 0.47 0.60 0.76 0.81 0.79 0.80 0.83 0.90 0.90 0.75 0.68 0.67 0.64 0.62 0.68 0.87 1.14 1.13 1.16 1.38 1.39 1.25 1.16 1.07 0.91
0.31 0.38 0.39 0.48 0.49 0.44 0.38 0.38 0.35 0.35 0.38 0.44 0.50 0.52 0.57 0.51 0.48 0.51 0.57 0.64 0.80 0.84 0.84 0.85 0.88 0.93 0.91 0.76 0.69 0.72 0.79 0.86 0.95 1.15 1.43 1.34 1.21 1.52 1.47 1.33 1.22 1.13 1.03
0.37 0.39 0.41 0.44 0.48 0.52 0.50 0.48 0.48 0.45 0.48 0.52 0.60 0.66 0.72 0.67 0.60 0.63 0.67 0.71 0.81 0.84 0.90 0.97 0.99 1.01 0.95 0.88 0.82 0.84 0.87 0.97 1.18 1.41 1.70 1.88 1.87 1.89 1.57 1.39 1.27 1.22 1.20
0.52 0.51 0.44 0.50 0.52 0.66 0.67 0.62 0.61 0.58 0.59 0.65 0.69 0.71 0.77 0.75 0.73 0.78 0.83 0.87 0.95 0.97 0.99 1.06 1.15 1.19 1.11 1.21 1.04 1.01 1.04 1.17 1.27 1.49 1.87 2.21 2.17 2.17 1.79 1.54 1.39 1.39 1.33
0.80 0.77 0.60 0.60 0.61 0.71 0.69 0.68 0.67 0.67 0.67 0.75 0.78 0.74 0.78 0.76 0.75 0.87 1.01 1.05 1.13 1.16 1.08 1.06 1.14 1.20 1.20 1.41 1.41 1.24 1.33 1.45 1.39 1.61 1.95 2.08 2.15 2.18 2.05 1.85 1.65 1.44 1.33
0.97 0.91 0.68 0.64 0.66 0.80 0.82 0.75 0.74 0.74 0.78 0.88 0.91 0.84 0.79 0.79 0.84 0.94 1.08 1.16 1.24 1.22 1.10 1.09 1.10 1.13 1.37 1.53 1.58 1.52 1.49 1.55 1.33 1.44 1.79 1.99 1.87 1.95 2.19 2.11 1.90 1.62 1.39
1.01 1.04 0.87 0.85 0.82 0.85 0.90 0.89 0.93 0.87 0.91 1.00 0.99 1.03 0.94 0.91 1.03 1.13 1.15 1.20 1.22 1.23 1.14 1.10 1.16 1.08 1.19 1.42 1.49 1.49 1.47 1.56 1.45 1.50 1.64 2.11 1.92 2.09 2.32 2.13 1.94 1.75 1.51
1.71 1.72 1.45 1.32 1.20 1.04 1.01 0.95 0.94 0.94 1.04 1.18 1.13 1.12 1.13 1.13 1.16 1.28 1.23 1.23 1.18 1.12 1.11 1.09 1.19 1.21 1.13 1.13 1.15 1.23 1.29 1.26 1.20 1.39 1.78 1.97 2.04 2.48 2.61 2.31 2.09 1.93 1.75
2.46 2.51 2.09 1.65 1.45 1.44 1.32 1.10 1.12 1.07 1.10 1.19 1.22 1.21 1.29 1.54 1.71 1.73 1.49 1.56 1.43 1.29 1.24 1.24 1.22 1.17 1.10 1.07 1.12 1.24 1.21 0.94 1.10 1.42 1.69 1.96 2.16 2.56 2.76 2.48 2.24 2.11 1.94
2.75 2.75 2.43 1.90 1.98 2.14 1.76 1.60 1.51 1.35 1.31 1.28 1.43 1.49 1.62 2.08 2.21 1.91 1.95 1.90 1.83 1.69 1.55 1.52 1.48 1.35 1.21 1.14 1.26 1.30 1.03 0.92 1.22 1.46 1.70 2.13 2.44 2.69 2.68 2.45 2.34 2.31 2.19
2.85 2.56 2.21 2.12 2.15 2.34 2.25 2.07 1.97 1.92 1.97 1.97 2.04 2.10 2.29 2.36 2.22 2.08 2.35 2.21 2.15 2.03 1.95 2.00 1.83 1.56 1.48 1.49 1.48 1.37 1.18 1.21 1.40 1.49 1.75 2.17 2.45 2.75 2.86 2.59 2.39 2.44 2.41
2.73 2.58 2.53 2.55 2.40 2.55 2.85 2.74 2.57 2.53 2.45 2.32 2.35 2.29 2.64 2.79 2.68 2.67 2.76 2.69 2.78 2.75 2.72 2.43 2.20 1.94 1.81 1.63 1.48 1.44 1.45 1.48 1.61 1.80 2.12 2.25 2.33 2.53 2.72 2.73 2.66 2.65 2.56
2.94 2.79 2.76 2.86 2.81 2.89 3.26 3.35 3.07 2.99 2.79 2.59 2.57 2.64 2.81 2.88 2.90 3.03 3.00 3.15 3.08 2.98 2.83 2.61 2.28 2.23 2.05 1.86 1.69 1.58 1.67 1.79 1.87 2.12 2.21 2.30 2.24 2.31 2.61 2.87 2.94 3.00 2.86
3.20 2.97 2.88 2.98 2.92 2.93 3.11 3.27 3.26 3.18 3.26 3.14 2.94 2.89 2.93 3.02 3.13 3.15 3.19 3.16 2.99 2.82 2.84 2.78 2.59 2.53 2.36 2.19 1.95 1.93 1.95 1.94 2.05 2.13 2.24 2.46 2.21 2.10 2.42 2.80 3.02 3.14 3.23
3.43 3.38 3.27 3.30 3.40 3.27 3.23 3.29 3.21 3.25 3.52 3.50 3.46 3.38 3.17 3.08 3.15 3.20 3.28 3.22 3.07 2.98 2.97 2.90 2.84 2.76 2.60 2.45 2.31 2.27 2.25 2.16 2.11 2.15 2.34 2.53 2.49 2.39 2.45 2.58 2.77 3.00 3.23
3.95 3.86 3.48 3.20 3.45 3.50 3.52 3.53 3.57 3.57 3.74 3.69 3.52 3.59 3.39 3.38 3.30 3.28 3.16 3.01 2.97 2.95 3.09 3.15 3.05 3.07 2.91 2.78 2.71 2.45 2.39 2.40 2.25 2.28 2.35 2.38 2.64 2.70 2.69 2.57 2.58 2.78 3.02
4.54 4.29 3.70 3.38 3.48 3.65 3.63 3.76 3.98 4.11 4.06 3.89 3.73 3.79 3.64 3.68 3.59 3.48 3.52 3.44 3.30 3.33 3.31 3.07 3.16 3.25 3.26 3.18 2.82 2.63 2.49 2.48 2.41 2.28 2.31 2.28 2.47 2.67 2.67 2.64 2.63 2.64 2.87
4.65 4.53 4.05 3.77 3.97 3.97 3.85 3.94 4.08 4.18 4.18 4.25 4.27 4.22 4.06 3.98 4.05 4.16 4.16 4.05 3.83 3.70 3.62 3.67 3.66 3.40 3.23 3.21 2.87 2.77 2.64 2.43 2.38 2.31 2.22 2.22 2.30 2.22 2.30 2.35 2.51 2.48 2.60
3.87 3.95 4.10 4.09 4.15 4.17 4.13 4.15 4.34 4.49 4.50 4.48 4.62 4.63 4.47 4.40 4.54 4.85 4.88 4.72 4.41 4.09 3.86 3.80 3.78 3.58 3.30 3.16 3.16 2.98 2.66 2.38 2.33 2.25 2.23 2.22 2.07 2.04 2.17 2.32 2.29 2.17 2.22
3.62 3.81 4.01 4.02 4.21 4.47 4.84 5.34 5.62 5.72 5.59 5.39 5.27 5.20 5.07 4.97 5.05 5.17 5.23 4.87 4.51 4.31 4.03 3.76 3.68 3.52 3.26 3.22 3.21 3.24 2.89 2.66 2.28 1.98 2.06 2.08 2.02 2.05 2.03 1.99 2.05 2.04 2.00
3.22 3.56 3.83 4.15 4.57 5.08 5.72 6.50 6.81 6.55 6.13 5.91 5.55 5.46 5.25 5.04 5.01 5.10 4.83 4.58 4.37 4.17 3.95 3.73 3.67 3.61 3.32 3.19 3.27 3.45 3.15 2.82 2.49 2.21 1.98 1.92 2.00 2.05 2.00 1.98 1.94 1.98 1.98
2.86 3.33 3.79 4.35 4.97 5.61 6.21 6.66 6.84 6.72 6.44 6.14 5.69 5.27 4.88 4.57 4.38 4.27 4.16 3.93 3.83 3.69 3.52 3.35 3.35 3.37 3.25 3.01 2.96 2.84 2.78 2.62 2.59 2.37 2.12 1.94 1.93 1.99 1.97 1.91 1.89 1.93 1.99
2.78 3.27 3.76 4.27 4.98 5.47 6.01 6.41 6.61 6.61 6.50 6.09 5.41 4.74 4.32 4.00 3.74 3.46 3.26 3.16 3.15 3.09 2.88 2.70 2.67 2.71 2.69 2.63 2.59 2.45 2.42 2.40 2.36 2.27 2.17 2.08 2.02 1.90 1.82 1.82 1.82 1.82 1.89
2.71 3.23 3.61 3.95 4.66 5.35 5.83 6.18 6.44 6.40 6.17 5.55 4.84 4.28 3.92 3.61 3.35 3.10 2.92 2.75 2.67 2.58 2.41 2.26 2.21 2.23 2.27 2.29 2.34 2.34 2.23 2.18 2.13 2.16 2.04 1.96 1.94 1.84 1.77 1.72 1.68 1.71 1.81

GEFSSE_prec_meanprecacc_288.txt.gz
Total_Precipitation_Accumulation
0.61 0.43 0.45 0.42 0.35 0.31 0.30 0.36 0.44 0.39 0.36 0.38 0.43 0.45 0.41 0.39 0.39 0.39 0.45 0.52 0.58 0.65 0.71 0.80 0.87 0.95 1.00 1.03 0.86 0.68 0.61 0.60 0.57 0.65 0.71 0.77 0.88 0.96 1.13 1.15 1.16 1.02 1.17
0.45 0.38 0.43 0.40 0.40 0.37 0.36 0.41 0.39 0.33 0.33 0.35 0.37 0.44 0.42 0.40 0.40 0.43 0.47 0.57 0.70 0.83 0.83 0.83 0.85 0.95 0.99 0.90 0.80 0.71 0.58 0.56 0.59 0.75 0.86 0.89 1.09 1.20 1.30 1.26 1.21 1.29 1.17
0.35 0.38 0.41 0.45 0.44 0.41 0.37 0.38 0.33 0.31 0.36 0.40 0.39 0.45 0.49 0.43 0.42 0.43 0.50 0.63 0.82 0.93 0.91 0.92 0.96 0.98 1.00 0.86 0.77 0.74 0.71 0.69 0.75 0.95 1.24 1.22 1.30 1.53 1.55 1.39 1.29 1.18 0.99
0.32 0.39 0.40 0.49 0.50 0.45 0.39 0.39 0.37 0.36 0.38 0.45 0.51 0.53 0.58 0.52 0.49 0.53 0.59 0.66 0.86 0.99 1.06 1.02 1.02 1.04 1.01 0.87 0.80 0.82 0.89 0.96 1.04 1.23 1.51 1.42 1.33 1.66 1.60 1.45 1.33 1.24 1.12
0.38 0.40 0.42 0.45 0.49 0.53 0.52 0.50 0.50 0.47 0.49 0.53 0.61 0.66 0.73 0.69 0.62 0.65 0.69 0.73 0.86 0.94 1.09 1.17 1.14 1.13 1.06 0.97 0.93 0.95 0.99 1.07 1.26 1.49 1.79 1.97 1.99 2.01 1.69 1.50 1.37 1.32 1.29
0.53 0.53 0.45 0.52 0.54 0.67 0.69 0.65 0.63 0.59 0.59 0.66 0.71 0.72 0.78 0.77 0.75 0.82 0.85 0.90 1.00 1.05 1.12 1.22 1.33 1.32 1.23 1.33 1.17 1.14 1.20 1.31 1.35 1.53 1.92 2.28 2.28 2.29 1.90 1.64 1.49 1.48 1.40
0.82 0.78 0.62 0.62 0.62 0.73 0.71 0.72 0.70 0.68 0.68 0.76 0.79 0.76 0.79 0.77 0.78 0.91 1.06 1.09 1.16 1.22 1.21 1.21 1.28 1.33 1.32 1.54 1.55 1.39 1.53 1.60 1.45 1.64 1.97 2.12 2.22 2.27 2.14 1.95 1.74 1.52 1.38
0.98 0.93 0.70 0.67 0.68 0.81 0.83 0.78 0.76 0.76 0.79 0.89 0.92 0.86 0.82 0.81 0.86 0.98 1.11 1.20 1.26 1.25 1.19 1.25 1.24 1.24 1.48 1.69 1.78 1.70 1.68 1.74 1.42 1.48 1.81 2.02 1.92 2.03 2.27 2.19 1.98 1.70 1.45
1.03 1.07 0.91 0.90 0.86 0.88 0.92 0.91 0.96 0.90 0.94 1.02 1.01 1.05 0.96 0.92 1.04 1.16 1.19 1.25 1.26 1.26 1.18 1.16 1.23 1.15 1.26 1.52 1.67 1.69 1.66 1.78 1.63 1.57 1.66 2.14 1.96 2.16 2.39 2.21 2.02 1.83 1.59
1.73 1.76 1.50 1.37 1.25 1.10 1.04 0.98 0.97 0.98 1.08 1.20 1.16 1.15 1.16 1.15 1.17 1.30 1.27 1.29 1.22 1.16 1.14 1.12 1.24 1.25 1.19 1.19 1.23 1.33 1.40 1.39 1.37 1.48 1.81 1.99 2.09 2.55 2.68 2.38 2.16 2.00 1.83
2.49 2.55 2.13 1.68 1.48 1.48 1.37 1.15 1.17 1.11 1.13 1.22 1.24 1.24 1.32 1.56 1.72 1.75 1.54 1.62 1.49 1.35 1.28 1.27 1.25 1.20 1.16 1.14 1.19 1.31 1.27 1.00 1.18 1.52 1.73 1.98 2.20 2.65 2.85 2.56 2.32 2.19 2.01
2.77 2.78 2.46 1.94 2.02 2.19 1.82 1.68 1.58 1.39 1.35 1.31 1.45 1.51 1.65 2.11 2.24 1.95 2.01 1.97 1.91 1.77 1.62 1.57 1.52 1.38 1.24 1.16 1.29 1.35 1.08 0.97 1.27 1.53 1.75 2.17 2.48 2.78 2.79 2.54 2.42 2.38 2.27
2.87 2.59 2.25 2.17 2.20 2.40 2.33 2.17 2.07 1.99 2.02 2.00 2.06 2.13 2.31 2.40 2.26 2.11 2.39 2.27 2.22 2.13 2.03 2.08 1.90 1.61 1.51 1.50 1.48 1.38 1.20 1.24 1.44 1.53 1.80 2.23 2.52 2.86 2.98 2.72 2.50 2.53 2.49
2.76 2.62 2.56 2.59 2.44 2.60 2.91 2.80 2.66 2.62 2.53 2.40 2.40 2.31 2.66 2.84 2.73 2.71 2.80 2.73 2.86 2.85 2.80 2.49 2.27 2.01 1.85 1.65 1.50 1.44 1.45 1.48 1.62 1.83 2.16 2.33 2.43 2.65 2.88 2.90 2.81 2.77 2.66
3.01 2.83 2.79 2.90 2.86 2.94 3.31 3.38 3.13 3.06 2.86 2.66 2.62 2.67 2.84 2.92 2.95 3.06 3.03 3.18 3.14 3.06 2.90 2.67 2.32 2.28 2.08 1.89 1.71 1.59 1.69 1.80 1.88 2.13 2.24 2.37 2.34 2.44 2.79 3.09 3.15 3.16 2.98
3.26 3.02 2.92 3.01 2.96 2.98 3.16 3.32 3.32 3.25 3.32 3.21 3.00 2.94 2.97 3.05 3.17 3.19 3.22 3.18 3.02 2.88 2.91 2.84 2.64 2.58 2.41 2.23 1.98 1.94 1.97 1.95 2.06 2.14 2.26 2.50 2.27 2.20 2.56 3.01 3.28 3.33 3.39
3.49 3.42 3.30 3.32 3.43 3.31 3.28 3.34 3.27 3.30 3.57 3.56 3.50 3.43 3.20 3.12 3.19 3.24 3.32 3.24 3.10 3.02 3.05 2.97 2.90 2.82 2.66 2.51 2.37 2.30 2.29 2.19 2.12 2.16 2.35 2.54 2.52 2.43 2.54 2.74 3.00 3.21 3.40
3.98 3.88 3.50 3.22 3.47 3.53 3.55 3.57 3.61 3.62 3.78 3.73 3.57 3.65 3.44 3.43 3.35 3.33 3.20 3.04 3.01 3.00 3.16 3.22 3.12 3.12 2.96 2.84 2.77 2.50 2.44 2.43 2.27 2.29 2.36 2.40 2.67 2.74 2.75 2.66 2.71 2.96 3.21
4.55 4.31 3.72 3.40 3.50 3.68 3.66 3.79 4.01 4.14 4.09 3.93 3.79 3.85 3.69 3.73 3.64 3.53 3.56 3.48 3.34 3.38 3.36 3.12 3.23 3.32 3.32 3.25 2.89 2.69 2.53 2.51 2.44 2.30 2.32 2.30 2.49 2.70 2.72 2.70 2.71 2.74 2.99
4.66 4.55 4.08 3.80 3.99 4.00 3.88 3.97 4.10 4.20 4.20 4.28 4.30 4.24 4.09 4.02 4.10 4.22 4.22 4.11 3.90 3.76 3.67 3.73 3.73 3.49 3.30 3.29 2.97 2.85 2.70 2.48 2.41 2.33 2.23 2.23 2.32 2.25 2.33 2.39 2.56 2.54 2.69
3.88 3.96 4.11 4.11 4.17 4.19 4.16 4.17 4.36 4.51 4.53 4.52 4.66 4.68 4.51 4.45 4.60 4.91 4.93 4.77 4.46 4.14 3.91 3.86 3.85 3.65 3.37 3.24 3.28 3.10 2.75 2.43 2.37 2.28 2.26 2.25 2.09 2.06 2.20 2.36 2.35 2.24 2.29
3.63 3.82 4.03 4.03 4.22 4.49 4.87 5.38 5.65 5.74 5.61 5.42 5.32 5.24 5.11 5.00 5.08 5.20 5.26 4.92 4.56 4.37 4.10 3.84 3.75 3.57 3.32 3.28 3.30 3.34 2.98 2.74 2.32 2.01 2.10 2.12 2.05 2.07 2.04 2.02 2.09 2.11 2.08
3.23 3.57 3.84 4.16 4.58 5.09 5.74 6.53 6.83 6.57 6.15 5.94 5.59 5.50 5.28 5.07 5.04 5.13 4.85 4.61 4.41 4.22 4.01 3.78 3.72 3.65 3.34 3.22 3.32 3.51 3.20 2.87 2.54 2.25 2.03 1.96 2.03 2.07 2.02 2.00 1.96 2.02 2.03
2.87 3.35 3.80 4.36 4.98 5.63 6.24 6.69 6.88 6.76 6.48 6.17 5.73 5.32 4.93 4.62 4.43 4.31 4.19 3.97 3.87 3.73 3.56 3.40 3.40 3.41 3.29 3.04 2.99 2.89 2.83 2.68 2.64 2.42 2.17 1.99 1.98 2.01 1.99 1.94 1.91 1.96 2.02
2.80 3.29 3.78 4.28 5.00 5.50 6.04 6.46 6.67 6.67 6.55 6.14 5.45 4.78 4.36 4.03 3.78 3.51 3.30 3.20 3.19 3.13 2.92 2.74 2.72 2.74 2.73 2.66 2.62 2.48 2.48 2.46 2.40 2.30 2.22 2.13 2.07 1.93 1.84 1.84 1.84 1.85 1.91
2.73 3.25 3.62 3.96 4.67 5.37 5.87 6.23 6.51 6.47 6.23 5.60 4.88 4.30 3.94 3.62 3.37 3.11 2.94 2.77 2.69 2.60 2.43 2.29 2.25 2.27 2.31 2.32 2.36 2.37 2.29 2.25 2.17 2.19 2.08 2.00 1.98 1.88 1.79 1.75 1.71 1.74 1.83

GEFSSE_prec_meanprecacc_294.txt.gz
Total_Precipitation_Accumulation
0.62 0.45 0.48 0.43 0.37 0.33 0.32 0.39 0.46 0.42 0.39 0.41 0.45 0.50 0.44 0.42 0.42 0.42 0.48 0.55 0.65 0.72 0.80 0.89 0.96 1.05 1.11 1.13 0.94 0.76 0.69 0.67 0.64 0.72 0.78 0.86 0.96 1.05 1.24 1.29 1.29 1.13 1.26
0.46 0.40 0.44 0.41 0.41 0.38 0.38 0.44 0.41 0.36 0.36 0.37 0.38 0.47 0.45 0.42 0.43 0.47 0.50 0.60 0.75 0.91 0.95 0.95 0.96 1.08 1.10 1.01 0.90 0.80 0.67 0.63 0.66 0.84 0.94 0.98 1.16 1.27 1.42 1.41 1.34 1.41 1.29
0.36 0.39 0.43 0.47 0.45 0.44 0.39 0.41 0.36 0.34 0.38 0.42 0.41 0.47 0.52 0.46 0.46 0.47 0.54 0.67 0.87 0.99 1.01 1.07 1.12 1.13 1.11 0.96 0.89 0.85 0.80 0.76 0.84 1.06 1.31 1.28 1.36 1.61 1.67 1.55 1.41 1.31 1.10
0.33 0.39 0.41 0.51 0.52 0.48 0.42 0.42 0.41 0.40 0.41 0.47 0.52 0.55 0.61 0.55 0.53 0.57 0.63 0.71 0.92 1.06 1.22 1.22 1.21 1.18 1.14 0.99 0.93 0.94 1.01 1.05 1.12 1.31 1.57 1.48 1.37 1.71 1.71 1.57 1.43 1.34 1.24
0.39 0.41 0.43 0.48 0.51 0.56 0.56 0.54 0.54 0.50 0.51 0.55 0.62 0.67 0.75 0.71 0.65 0.67 0.73 0.78 0.90 0.99 1.25 1.47 1.39 1.30 1.21 1.10 1.06 1.09 1.13 1.17 1.35 1.55 1.84 2.04 2.06 2.08 1.78 1.61 1.48 1.43 1.43
0.54 0.55 0.47 0.55 0.57 0.69 0.73 0.70 0.69 0.64 0.61 0.67 0.71 0.73 0.80 0.80 0.78 0.84 0.89 0.93 1.03 1.08 1.17 1.37 1.53 1.49 1.38 1.45 1.28 1.27 1.33 1.41 1.43 1.58 1.97 2.34 2.34 2.36 1.99 1.74 1.60 1.59 1.52
0.83 0.80 0.64 0.66 0.65 0.75 0.74 0.77 0.75 0.74 0.71 0.77 0.80 0.78 0.82 0.80 0.80 0.94 1.09 1.12 1.19 1.25 1.24 1.26 1.36 1.46 1.45 1.68 1.67 1.49 1.63 1.69 1.52 1.68 2.01 2.17 2.28 2.34 2.22 2.04 1.84 1.63 1.50
1.00 0.94 0.72 0.71 0.71 0.83 0.86 0.84 0.81 0.82 0.84 0.91 0.93 0.88 0.85 0.84 0.89 1.01 1.15 1.24 1.30 1.28 1.22 1.30 1.31 1.38 1.61 1.80 1.89 1.79 1.77 1.83 1.49 1.53 1.86 2.09 2.00 2.10 2.34 2.26 2.07 1.80 1.55
1.04 1.08 0.93 0.94 0.91 0.92 0.96 0.95 1.00 0.96 1.00 1.06 1.04 1.07 1.00 0.96 1.07 1.19 1.23 1.29 1.31 1.30 1.21 1.20 1.29 1.24 1.39 1.63 1.77 1.78 1.76 1.92 1.73 1.64 1.73 2.20 2.03 2.24 2.48 2.31 2.10 1.90 1.67
1.75 1.78 1.52 1.41 1.35 1.23 1.12 1.03 1.03 1.03 1.13 1.26 1.20 1.18 1.19 1.18 1.21 1.33 1.30 1.33 1.28 1.19 1.17 1.15 1.27 1.31 1.28 1.31 1.33 1.41 1.49 1.54 1.54 1.57 1.88 2.04 2.14 2.64 2.78 2.48 2.24 2.08 1.91
2.50 2.57 2.16 1.73 1.57 1.76 1.54 1.21 1.24 1.17 1.20 1.29 1.29 1.28 1.36 1.60 1.76 1.79 1.58 1.67 1.56 1.42 1.33 1.30 1.28 1.24 1.20 1.22 1.30 1.39 1.34 1.07 1.37 1.69 1.81 2.03 2.25 2.71 2.94 2.66 2.40 2.28 2.09
2.78 2.79 2.48 1.97 2.07 2.29 1.93 1.76 1.66 1.46 1.41 1.39 1.50 1.55 1.69 2.17 2.30 2.01 2.09 2.04 1.99 1.85 1.69 1.62 1.55 1.41 1.27 1.21 1.36 1.41 1.13 1.00 1.36 1.73 1.87 2.24 2.54 2.84 2.87 2.63 2.51 2.46 2.34
2.88 2.60 2.27 2.19 2.24 2.45 2.40 2.26 2.15 2.06 2.08 2.11 2.14 2.18 2.36 2.46 2.33 2.20 2.49 2.39 2.33 2.24 2.14 2.16 1.96 1.65 1.55 1.55 1.54 1.42 1.24 1.27 1.50 1.66 1.91 2.30 2.60 2.94 3.07 2.81 2.59 2.61 2.57
2.77 2.64 2.58 2.61 2.48 2.65 2.98 2.91 2.76 2.70 2.61 2.54 2.51 2.38 2.72 2.89 2.78 2.78 2.87 2.83 2.98 2.97 2.92 2.59 2.35 2.07 1.90 1.69 1.55 1.49 1.48 1.52 1.67 1.92 2.25 2.39 2.51 2.75 2.99 3.01 2.91 2.87 2.74
3.03 2.85 2.81 2.92 2.88 2.98 3.36 3.48 3.20 3.15 2.95 2.77 2.74 2.79 2.91 2.98 3.00 3.12 3.10 3.27 3.26 3.19 3.02 2.78 2.41 2.36 2.15 1.94 1.76 1.64 1.74 1.83 1.91 2.19 2.32 2.42 2.41 2.53 2.88 3.20 3.25 3.25 3.07
3.29 3.06 2.95 3.03 2.98 3.01 3.21 3.39 3.39 3.32 3.39 3.27 3.06 3.04 3.07 3.13 3.24 3.26 3.28 3.25 3.11 2.99 3.01 2.93 2.73 2.65 2.47 2.28 2.03 2.00 2.01 1.98 2.08 2.18 2.32 2.55 2.33 2.27 2.65 3.10 3.37 3.43 3.49
3.55 3.47 3.33 3.34 3.45 3.34 3.32 3.39 3.33 3.35 3.63 3.62 3.55 3.49 3.28 3.21 3.28 3.34 3.40 3.31 3.17 3.11 3.15 3.04 2.97 2.88 2.71 2.56 2.42 2.34 2.34 2.23 2.15 2.19 2.39 2.60 2.57 2.49 2.62 2.83 3.11 3.33 3.52
4.03 3.92 3.53 3.26 3.52 3.57 3.59 3.62 3.66 3.66 3.82 3.78 3.63 3.71 3.49 3.49 3.41 3.39 3.27 3.11 3.06 3.08 3.29 3.32 3.20 3.19 3.01 2.90 2.82 2.54 2.49 2.48 2.30 2.33 2.40 2.43 2.71 2.79 2.82 2.74 2.80 3.08 3.35
4.57 4.33 3.76 3.44 3.54 3.70 3.69 3.83 4.06 4.19 4.15 3.98 3.83 3.90 3.75 3.79 3.69 3.57 3.60 3.53 3.39 3.45 3.49 3.25 3.32 3.40 3.39 3.31 2.94 2.74 2.58 2.54 2.47 2.33 2.35 2.33 2.53 2.74 2.76 2.76 2.79 2.85 3.12
4.68 4.57 4.09 3.82 4.02 4.03 3.92 4.01 4.17 4.28 4.28 4.34 4.35 4.29 4.14 4.08 4.16 4.26 4.25 4.16 3.97 3.83 3.80 3.89 3.85 3.58 3.39 3.38 3.04 2.91 2.74 2.50 2.43 2.35 2.26 2.26 2.34 2.26 2.35 2.43 2.63 2.62 2.79
3.90 3.98 4.12 4.12 4.19 4.23 4.20 4.21 4.41 4.59 4.63 4.60 4.72 4.74 4.56 4.50 4.65 4.94 4.96 4.81 4.51 4.20 4.02 4.02 4.01 3.78 3.47 3.32 3.38 3.20 2.82 2.48 2.40 2.31 2.28 2.27 2.11 2.07 2.21 2.39 2.39 2.29 2.36
3.65 3.84 4.04 4.05 4.25 4.52 4.90 5.41 5.69 5.79 5.68 5.51 5.38 5.29 5.15 5.04 5.12 5.23 5.29 4.95 4.59 4.41 4.16 3.92 3.87 3.71 3.45 3.40 3.43 3.46 3.10 2.82 2.37 2.04 2.12 2.14 2.07 2.09 2.06 2.03 2.11 2.14 2.13
3.25 3.59 3.85 4.18 4.61 5.12 5.78 6.56 6.86 6.59 6.18 5.99 5.64 5.55 5.32 5.11 5.08 5.17 4.89 4.65 4.44 4.25 4.06 3.84 3.80 3.76 3.45 3.33 3.44 3.64 3.32 2.97 2.61 2.29 2.07 1.99 2.06 2.10 2.04 2.02 1.98 2.03 2.06
2.88 3.36 3.81 4.37 5.00 5.65 6.26 6.72 6.90 6.79 6.50 6.20 5.76 5.36 4.96 4.65 4.46 4.35 4.22 4.00 3.90 3.77 3.61 3.45 3.47 3.50 3.38 3.13 3.09 2.98 2.93 2.77 2.70 2.48 2.23 2.03 2.01 2.04 2.02 1.96 1.93 1.97 2.04
2.81 3.30 3.78 4.29 5.02 5.52 6.07 6.48 6.69 6.69 6.57 6.17 5.48 4.83 4.40 4.06 3.80 3.53 3.34 3.24 3.23 3.17 2.97 2.81 2.79 2.83 2.81 2.75 2.70 2.55 2.54 2.51 2.46 2.36 2.28 2.19 2.12 1.96 1.88 1.88 1.88 1.88 1.93
2.74 3.26 3.63 3.96 4.68 5.38 5.88 6.24 6.52 6.50 6.26 5.64 4.93 4.35 3.98 3.66 3.40 3.14 2.98 2.83 2.77 2.67 2.50 2.36 2.33 2.36 2.39 2.40 2.45 2.44 2.35 2.29 2.23 2.24 2.12 2.05 2.04 1.92 1.84 1.80 1.75 1.76 1.86